Home > Weather > Saint George's > Past weeks

Flag for Grenada Past Weather in Saint George's, Grenada — Yesterday and Last 2 Weeks

Now
88 °F

Passing clouds.


Feels Like: 100 °F
Forecast: N/A
Wind: 17 mph from East

Location: Point Salines Airport

Current Time: Aug 28, 2016 at 4:57:56 PM

Latest Report: Aug 28, 2016 at 4:00 PM


Visibility: N/A

Pressure: 29.86 "Hg

Humidity: 70%

Dew Point: 77 °F

Location of Saint George'sLocation

Past Weather in Saint George's — Graph

°F

Saint George's Temperature Yesterday

Maximum temperature yesterday: 88 °F (at 12:00 PM)
Minimum temperature yesterday: 79 °F (at 12:00 AM)
Average temperature yesterday: 83 °F

High & Low Weather Summary for the Past Weeks

 TemperatureHumidityPressure
High88 °F (Aug 16, 11:00 AM)100% (Aug 14, 7:00 AM)29.98 "Hg (Aug 14, 7:00 AM)
Low75 °F (Aug 14, 8:00 PM)66% (Aug 23, 2:00 PM)29.83 "Hg (Aug 24, 4:00 PM)
Average83 °F83%29.92 "Hg
* Reported Aug 13 3:00 PM — Aug 28 3:00 PM, Saint George's, Weather by CustomWeather, © 2016

Note: Actual official high and low records may vary slightly from our data, if they occured in-between our weather recording intervals... More about our weather records

Advertising

Saint George's Weather History for the Previous 24 Hours

Scroll right to see more
 ConditionsComfort  
Time TempWeatherWind HumidityBarometerVisibility
3:00 PM
Sun, Aug 28
88 °FSprinkles. Scattered clouds.20 mph75%29.89 "HgN/A
2:00 PM88 °FPassing clouds.14 mph70%29.89 "HgN/A
1:00 PM88 °FPassing clouds.18 mph75%29.92 "HgN/A
12:00 PM88 °FScattered clouds.21 mph75%29.95 "HgN/A
11:00 AM88 °FScattered clouds.14 mph70%29.98 "HgN/A
10:00 AM88 °FPassing clouds.14 mph75%29.95 "HgN/A
9:00 AM88 °FPassing clouds.18 mph75%29.95 "HgN/A
8:00 AM86 °FPassing clouds.13 mph79%29.95 "HgN/A
7:00 AM82 °FPassing clouds.8 mph84%29.92 "HgN/A
6:00 AM81 °FPassing clouds.6 mph89%29.92 "HgN/A
5:00 AM81 °FPassing clouds.6 mph89%29.89 "HgN/A
4:00 AM81 °FPassing clouds.6 mph89%29.89 "HgN/A
3:00 AM79 °FSprinkles. Passing clouds.6 mph94%29.89 "HgN/A
2:00 AM79 °FPassing clouds.2 mph94%29.89 "HgN/A
1:00 AM81 °FPassing clouds.6 mph89%29.92 "HgN/A
12:00 AM81 °FPassing clouds.6 mph89%29.92 "HgN/A
11:00 PM
Sat, Aug 27
81 °FPassing clouds.9 mph89%29.92 "HgN/A
10:00 PM82 °FPassing clouds.10 mph84%29.92 "HgN/A
8:00 PM81 °FPassing clouds.7 mph84%29.89 "HgN/A
7:00 PM84 °FPassing clouds.10 mph79%29.89 "HgN/A
6:00 PM82 °FPassing clouds.10 mph84%29.86 "HgN/A
5:00 PM86 °FPassing clouds.10 mph75%29.86 "HgN/A
4:00 PM84 °FPassing clouds.14 mph74%29.86 "HgN/A
Weather by CustomWeather, © 2016

See weather overviewHow to use our weather pages